UAL1586 KDEN-KOMA

Flight info

Callsign UAL1586
Flight time 1h 5m
Altitude 35000
Route EEONS8 WYNDM HCT GRI HOWRY3
Aircraft B738/M-SDE2E3FGHIRWXY/LB1

Departure

Time 2026-05-04 12:26
Airport Denver International Airport (KDEN)

Arrival

Time 2026-05-04 13:31
Airport Eppley Airfield (KOMA)
Time Latitude Longitude Altitude Speed Heading
2026-05-04 11:50 39.85341 -104.67881 5383 ft 0 kts
2026-05-04 12:10 39.85332 -104.67881 5381 ft 2 kts
2026-05-04 12:10 39.85316 -104.67881 5382 ft 2 kts
2026-05-04 12:10 39.85299 -104.67881 5383 ft 2 kts
2026-05-04 12:10 39.85283 -104.67882 5383 ft 2 kts
2026-05-04 12:11 39.85268 -104.67882 5384 ft 0 kts
2026-05-04 12:14 39.85300 -104.67706 5383 ft 6 kts 59°
2026-05-04 12:15 39.85306 -104.67653 5383 ft 6 kts 96°
2026-05-04 12:15 39.85300 -104.67594 5383 ft 9 kts 97°
2026-05-04 12:15 39.85283 -104.67510 5381 ft 10 kts 108°
2026-05-04 12:15 39.85278 -104.67422 5385 ft 10 kts 89°
2026-05-04 12:16 39.85278 -104.67336 5385 ft 9 kts 91°
2026-05-04 12:16 39.85277 -104.67251 5384 ft 9 kts 91°
2026-05-04 12:16 39.85276 -104.67169 5385 ft 9 kts 91°
2026-05-04 12:16 39.85274 -104.67088 5386 ft 9 kts 91°
2026-05-04 12:17 39.85274 -104.67010 5387 ft 9 kts 89°
2026-05-04 12:17 39.85274 -104.66924 5388 ft 12 kts 90°
2026-05-04 12:17 39.85274 -104.66782 5391 ft 18 kts 90°
2026-05-04 12:17 39.85274 -104.66622 5390 ft 18 kts 90°
2026-05-04 12:18 39.85295 -104.66470 5398 ft 17 kts 90°
2026-05-04 12:18 39.85340 -104.66349 5396 ft 16 kts 11°
2026-05-04 12:18 39.85449 -104.66353 5394 ft 16 kts
2026-05-04 12:18 39.85586 -104.66352 5391 ft 23 kts 360°
2026-05-04 12:19 39.85763 -104.66351 5391 ft 27 kts
2026-05-04 12:19 39.85958 -104.66346 5387 ft 28 kts
2026-05-04 12:19 39.86149 -104.66348 5386 ft 27 kts 359°
2026-05-04 12:19 39.86328 -104.66345 5379 ft 25 kts
2026-05-04 12:20 39.86488 -104.66310 5378 ft 23 kts 49°
2026-05-04 12:20 39.86501 -104.66108 5377 ft 22 kts 90°
2026-05-04 12:20 39.86499 -104.65910 5378 ft 22 kts 91°
2026-05-04 12:20 39.86496 -104.65715 5373 ft 21 kts 92°
2026-05-04 12:21 39.86494 -104.65526 5373 ft 21 kts 88°
2026-05-04 12:21 39.86497 -104.65342 5365 ft 20 kts 90°
2026-05-04 12:21 39.86495 -104.65145 5360 ft 23 kts 91°
2026-05-04 12:21 39.86491 -104.64941 5356 ft 23 kts 90°
2026-05-04 12:22 39.86489 -104.64721 5344 ft 26 kts 91°
2026-05-04 12:22 39.86488 -104.64478 5335 ft 27 kts 90°
2026-05-04 12:22 39.86486 -104.64245 5332 ft 25 kts 90°
2026-05-04 12:22 39.86477 -104.64151 5335 ft 9 kts 129°
2026-05-04 12:23 39.86444 -104.64134 5335 ft 0 kts 179°
2026-05-04 12:25 39.86436 -104.64134 5336 ft 9 kts 179°
2026-05-04 12:25 39.86142 -104.64136 5340 ft 75 kts 181°
2026-05-04 12:25 39.85412 -104.64145 5348 ft 133 kts 180°
2026-05-04 12:25 39.84326 -104.64175 5462 ft 172 kts 182°
2026-05-04 12:26 39.83125 -104.64149 6168 ft 177 kts 175°
2026-05-04 12:26 39.81853 -104.63577 6413 ft 211 kts 155°
2026-05-04 12:26 39.80426 -104.62882 6692 ft 227 kts 158°
2026-05-04 12:26 39.79200 -104.61492 7026 ft 247 kts 120°
2026-05-04 12:27 39.78531 -104.59380 7428 ft 260 kts 110°
2026-05-04 12:27 39.77889 -104.57078 7641 ft 283 kts 105°
2026-05-04 12:27 39.77867 -104.54516 8021 ft 295 kts 73°
2026-05-04 12:27 39.78585 -104.52026 8878 ft 294 kts 64°
2026-05-04 12:28 39.79460 -104.49607 9765 ft 297 kts 63°
2026-05-04 12:28 39.80354 -104.47164 10434 ft 306 kts 63°
2026-05-04 12:28 39.81283 -104.44552 10622 ft 331 kts 64°
2026-05-04 12:28 39.82241 -104.41736 11023 ft 345 kts 65°
2026-05-04 12:29 39.83190 -104.38836 11675 ft 350 kts 65°
2026-05-04 12:29 39.84130 -104.35890 12396 ft 354 kts 65°
2026-05-04 12:29 39.85069 -104.32903 13126 ft 358 kts 65°
2026-05-04 12:29 39.86010 -104.29881 13823 ft 363 kts 65°
2026-05-04 12:30 39.86959 -104.26812 14487 ft 366 kts 65°
2026-05-04 12:30 39.87899 -104.23760 15146 ft 369 kts 66°
2026-05-04 12:30 39.88857 -104.20639 15789 ft 373 kts 66°
2026-05-04 12:30 39.89824 -104.17489 16437 ft 377 kts 66°
2026-05-04 12:31 39.90802 -104.14299 17070 ft 381 kts 66°
2026-05-04 12:31 39.91789 -104.11077 17696 ft 385 kts 66°
2026-05-04 12:31 39.92785 -104.07821 18301 ft 389 kts 66°
2026-05-04 12:31 39.93789 -104.04530 18847 ft 393 kts 66°
2026-05-04 12:32 39.94803 -104.01206 19383 ft 397 kts 66°
2026-05-04 12:32 39.96860 -103.94453 20445 ft 405 kts 66°
2026-05-04 12:32 39.97903 -103.91020 20966 ft 409 kts 66°
2026-05-04 12:33 39.98598 -103.88729 21315 ft 411 kts 66°
2026-05-04 12:33 40.00002 -103.84101 21991 ft 417 kts 66°
2026-05-04 12:33 40.00723 -103.81720 22330 ft 419 kts 66°
2026-05-04 12:33 40.01797 -103.78164 22834 ft 423 kts 67°
2026-05-04 12:34 40.02883 -103.73234 23441 ft 430 kts 75°
2026-05-04 12:34 40.03518 -103.69401 23836 ft 434 kts 76°
2026-05-04 12:34 40.03932 -103.66777 24080 ft 437 kts 77°
2026-05-04 12:34 40.04534 -103.62910 24444 ft 441 kts 77°
2026-05-04 12:35 40.05151 -103.58967 24814 ft 445 kts 77°
2026-05-04 12:35 40.05780 -103.54988 25187 ft 449 kts 76°
2026-05-04 12:35 40.06421 -103.50979 25558 ft 453 kts 76°
2026-05-04 12:35 40.07071 -103.46940 25920 ft 457 kts 76°
2026-05-04 12:36 40.07730 -103.42865 26277 ft 461 kts 76°
2026-05-04 12:36 40.08395 -103.38748 26631 ft 464 kts 76°
2026-05-04 12:36 40.09065 -103.34601 26979 ft 468 kts 76°
2026-05-04 12:36 40.09738 -103.30425 27323 ft 471 kts 76°
2026-05-04 12:37 40.10413 -103.26221 27654 ft 475 kts 76°
2026-05-04 12:37 40.11092 -103.21983 27975 ft 478 kts 76°
2026-05-04 12:37 40.11765 -103.17768 28285 ft 482 kts 76°
2026-05-04 12:37 40.12450 -103.13472 28594 ft 485 kts 76°
2026-05-04 12:38 40.13138 -103.09139 28895 ft 488 kts 76°
2026-05-04 12:38 40.13827 -103.04788 29182 ft 491 kts 76°
2026-05-04 12:38 40.14521 -103.00401 29460 ft 494 kts 76°
2026-05-04 12:38 40.15217 -102.95987 29728 ft 497 kts 76°
2026-05-04 12:39 40.15914 -102.91550 29974 ft 500 kts 76°
2026-05-04 12:39 40.16614 -102.87090 30224 ft 502 kts 76°
2026-05-04 12:39 40.17314 -102.82612 30497 ft 503 kts 76°
2026-05-04 12:39 40.18011 -102.78137 30804 ft 503 kts 76°
2026-05-04 12:40 40.18709 -102.73645 31187 ft 501 kts 76°
2026-05-04 12:40 40.19401 -102.69178 31605 ft 499 kts 76°
2026-05-04 12:40 40.20080 -102.64792 31985 ft 497 kts 76°
2026-05-04 12:40 40.20763 -102.60366 32330 ft 497 kts 76°
2026-05-04 12:41 40.21445 -102.55936 32680 ft 496 kts 76°
2026-05-04 12:41 40.22122 -102.51523 33055 ft 494 kts 76°
2026-05-04 12:41 40.22796 -102.47121 33425 ft 492 kts 76°
2026-05-04 12:41 40.23465 -102.42743 33767 ft 491 kts 76°
2026-05-04 12:42 40.24133 -102.38357 34042 ft 490 kts 76°
2026-05-04 12:42 40.24799 -102.33972 34255 ft 491 kts 76°
2026-05-04 12:42 40.25465 -102.29577 34456 ft 492 kts 76°
2026-05-04 12:42 40.26130 -102.25178 34683 ft 492 kts 76°
2026-05-04 12:43 40.26794 -102.20774 34776 ft 495 kts 76°
2026-05-04 12:43 40.28127 -102.11896 34778 ft 496 kts 76°
2026-05-04 12:44 40.29440 -102.03080 34760 ft 489 kts 76°
2026-05-04 12:44 40.30729 -101.94393 34781 ft 488 kts 76°
2026-05-04 12:45 40.32017 -101.85673 34787 ft 487 kts 76°
2026-05-04 12:45 40.33297 -101.76956 34788 ft 487 kts 76°
2026-05-04 12:46 40.34569 -101.68245 34793 ft 487 kts 76°
2026-05-04 12:46 40.35836 -101.59517 34801 ft 487 kts 76°
2026-05-04 12:47 40.37095 -101.50798 34795 ft 487 kts 76°
2026-05-04 12:47 40.38351 -101.42056 34787 ft 487 kts 76°
2026-05-04 12:48 40.39606 -101.33316 34780 ft 488 kts 76°
2026-05-04 12:48 40.40851 -101.24622 34770 ft 488 kts 76°
2026-05-04 12:49 40.42098 -101.15858 34753 ft 489 kts 76°
2026-05-04 12:49 40.43340 -101.07078 34756 ft 489 kts 76°
2026-05-04 12:50 40.44576 -100.98293 34750 ft 490 kts 76°
2026-05-04 12:50 40.45916 -100.89535 34745 ft 488 kts 72°
2026-05-04 12:51 40.47736 -100.80951 34757 ft 487 kts 70°
2026-05-04 12:51 40.49656 -100.72394 34752 ft 488 kts 70°
2026-05-04 12:52 40.51524 -100.63867 34755 ft 488 kts 70°
2026-05-04 12:52 40.53363 -100.55269 34743 ft 489 kts 70°
2026-05-04 12:53 40.55185 -100.46656 34744 ft 489 kts 71°
2026-05-04 12:53 40.57003 -100.38025 34747 ft 489 kts 71°
2026-05-04 12:54 40.58819 -100.29384 34747 ft 489 kts 71°
2026-05-04 12:54 40.60630 -100.20733 34745 ft 490 kts 71°
2026-05-04 12:55 40.62422 -100.12140 34745 ft 490 kts 71°
2026-05-04 12:55 40.64220 -100.03481 34760 ft 490 kts 71°
2026-05-04 12:56 40.66010 -99.94827 34770 ft 490 kts 71°
2026-05-04 12:56 40.67798 -99.86145 34778 ft 490 kts 71°
2026-05-04 12:57 40.69563 -99.77537 34784 ft 490 kts 71°
2026-05-04 12:57 40.71335 -99.68860 34780 ft 490 kts 71°
2026-05-04 12:58 40.73098 -99.60191 34785 ft 489 kts 71°
2026-05-04 12:58 40.74855 -99.51515 34761 ft 489 kts 71°
2026-05-04 12:59 40.76604 -99.42843 34747 ft 489 kts 71°
2026-05-04 12:59 40.78345 -99.34168 34740 ft 489 kts 71°
2026-05-04 13:00 40.80079 -99.25500 34751 ft 488 kts 71°
2026-05-04 13:00 40.81794 -99.16883 34767 ft 488 kts 71°
2026-05-04 13:01 40.83512 -99.08220 34770 ft 487 kts 71°
2026-05-04 13:01 40.85220 -98.99563 34764 ft 486 kts 72°
2026-05-04 13:02 40.86916 -98.90935 34766 ft 484 kts 72°
2026-05-04 13:02 40.88607 -98.82299 34401 ft 485 kts 72°
2026-05-04 13:02 40.89443 -98.78011 34026 ft 479 kts 72°
2026-05-04 13:03 40.90267 -98.73767 33601 ft 475 kts 72°
2026-05-04 13:03 40.91084 -98.69558 33132 ft 471 kts 72°
2026-05-04 13:03 40.91893 -98.65382 32720 ft 466 kts 72°
2026-05-04 13:03 40.92692 -98.61252 32307 ft 462 kts 72°
2026-05-04 13:04 40.93484 -98.57153 31911 ft 457 kts 72°
2026-05-04 13:04 40.94255 -98.53152 31515 ft 453 kts 73°
2026-05-04 13:04 40.95030 -98.49121 31120 ft 449 kts 73°
2026-05-04 13:04 40.95795 -98.45132 30735 ft 446 kts 73°
2026-05-04 13:05 40.96554 -98.41174 30350 ft 442 kts 73°
2026-05-04 13:05 40.97306 -98.37245 29963 ft 439 kts 73°
2026-05-04 13:05 40.98050 -98.33344 29538 ft 435 kts 73°
2026-05-04 13:05 40.98866 -98.29502 29127 ft 429 kts 69°
2026-05-04 13:06 40.99817 -98.25789 28739 ft 424 kts 68°
2026-05-04 13:06 41.00812 -98.22142 28345 ft 419 kts 67°
2026-05-04 13:06 41.01813 -98.18539 27934 ft 415 kts 67°
2026-05-04 13:06 41.02801 -98.14966 27553 ft 411 kts 67°
2026-05-04 13:07 41.03772 -98.11423 27147 ft 408 kts 67°
2026-05-04 13:07 41.04728 -98.07895 26774 ft 404 kts 67°
2026-05-04 13:07 41.05669 -98.04398 26386 ft 402 kts 68°
2026-05-04 13:07 41.06600 -98.00922 26005 ft 399 kts 68°
2026-05-04 13:08 41.07522 -97.97463 25625 ft 396 kts 68°
2026-05-04 13:08 41.08434 -97.94033 25250 ft 394 kts 68°
2026-05-04 13:08 41.09329 -97.90662 24887 ft 391 kts 68°
2026-05-04 13:08 41.10231 -97.87264 24519 ft 389 kts 68°
2026-05-04 13:09 41.11124 -97.83891 24146 ft 387 kts 68°
2026-05-04 13:09 41.12013 -97.80529 23781 ft 385 kts 68°
2026-05-04 13:09 41.12896 -97.77186 23423 ft 382 kts 68°
2026-05-04 13:09 41.13772 -97.73867 23027 ft 381 kts 68°
2026-05-04 13:10 41.14642 -97.70563 22615 ft 378 kts 68°
2026-05-04 13:10 41.15505 -97.67283 22257 ft 375 kts 68°
2026-05-04 13:10 41.16359 -97.64031 21883 ft 373 kts 68°
2026-05-04 13:10 41.17211 -97.60785 21537 ft 370 kts 68°
2026-05-04 13:11 41.18053 -97.57571 21170 ft 368 kts 68°
2026-05-04 13:11 41.18890 -97.54370 20823 ft 365 kts 68°
2026-05-04 13:11 41.19712 -97.51227 20481 ft 363 kts 68°
2026-05-04 13:11 41.20540 -97.48057 20126 ft 362 kts 68°
2026-05-04 13:12 41.21360 -97.44908 19790 ft 360 kts 68°
2026-05-04 13:12 41.22175 -97.41777 19445 ft 358 kts 68°
2026-05-04 13:12 41.22988 -97.38651 19107 ft 357 kts 68°
2026-05-04 13:12 41.23796 -97.35541 18773 ft 355 kts 68°
2026-05-04 13:13 41.24600 -97.32444 18429 ft 354 kts 68°
2026-05-04 13:13 41.25400 -97.29352 18094 ft 353 kts 68°
2026-05-04 13:13 41.26198 -97.26269 17713 ft 352 kts 68°
2026-05-04 13:13 41.26984 -97.23226 17352 ft 351 kts 68°
2026-05-04 13:14 41.27774 -97.20164 16994 ft 350 kts 68°
2026-05-04 13:14 41.28559 -97.17117 16739 ft 347 kts 68°
2026-05-04 13:14 41.29339 -97.14085 16479 ft 346 kts 68°
2026-05-04 13:14 41.30117 -97.11059 16232 ft 344 kts 68°
2026-05-04 13:15 41.30889 -97.08051 15901 ft 342 kts 68°
2026-05-04 13:15 41.31655 -97.05066 15579 ft 341 kts 68°
2026-05-04 13:15 41.32412 -97.02108 15228 ft 340 kts 68°
2026-05-04 13:15 41.33174 -96.99127 14902 ft 339 kts 68°
2026-05-04 13:16 41.33933 -96.96158 14569 ft 338 kts 68°
2026-05-04 13:16 41.34687 -96.93205 14242 ft 337 kts 68°
2026-05-04 13:16 41.35442 -96.90244 13925 ft 336 kts 68°
2026-05-04 13:16 41.36165 -96.87290 13588 ft 336 kts 74°
2026-05-04 13:17 41.36413 -96.84188 13239 ft 338 kts 91°
2026-05-04 13:17 41.36044 -96.81106 13003 ft 336 kts 102°
2026-05-04 13:17 41.35512 -96.78082 12740 ft 336 kts 103°
2026-05-04 13:17 41.34963 -96.75099 12490 ft 337 kts 103°
2026-05-04 13:18 41.34405 -96.72072 12239 ft 334 kts 103°
2026-05-04 13:18 41.33862 -96.69080 11938 ft 332 kts 103°
2026-05-04 13:18 41.33326 -96.66094 11599 ft 332 kts 102°
2026-05-04 13:18 41.32796 -96.63109 11259 ft 331 kts 102°
2026-05-04 13:19 41.32269 -96.60131 10911 ft 330 kts 102°
2026-05-04 13:19 41.31919 -96.58150 10667 ft 331 kts 102°
2026-05-04 13:19 41.31216 -96.54166 10302 ft 327 kts 102°
2026-05-04 13:19 41.30702 -96.51255 10134 ft 320 kts 102°
2026-05-04 13:20 41.30196 -96.48396 9942 ft 315 kts 102°
2026-05-04 13:20 41.29694 -96.45558 9632 ft 315 kts 102°
2026-05-04 13:20 41.29191 -96.42722 9295 ft 315 kts 102°
2026-05-04 13:20 41.28689 -96.39887 8936 ft 316 kts 102°
2026-05-04 13:21 41.28184 -96.37048 8606 ft 315 kts 102°
2026-05-04 13:21 41.27680 -96.34212 8257 ft 315 kts 102°
2026-05-04 13:21 41.27173 -96.31375 7925 ft 315 kts 102°
2026-05-04 13:21 41.26674 -96.28576 7601 ft 315 kts 102°
2026-05-04 13:22 41.26169 -96.25748 7305 ft 315 kts 102°
2026-05-04 13:22 41.25661 -96.22908 6980 ft 315 kts 102°
2026-05-04 13:22 41.25318 -96.20998 6779 ft 314 kts 102°
2026-05-04 13:22 41.24817 -96.18206 6479 ft 314 kts 102°
2026-05-04 13:23 41.24311 -96.15386 6160 ft 313 kts 102°
2026-05-04 13:23 41.23807 -96.12585 5842 ft 312 kts 102°
2026-05-04 13:23 41.23309 -96.09808 5532 ft 312 kts 103°
2026-05-04 13:23 41.22797 -96.06969 5209 ft 311 kts 103°
2026-05-04 13:24 41.22296 -96.04190 4924 ft 307 kts 103°
2026-05-04 13:24 41.21803 -96.01461 4813 ft 300 kts 103°
2026-05-04 13:24 41.21322 -95.98794 4661 ft 293 kts 103°
2026-05-04 13:25 41.19360 -95.94388 4416 ft 268 kts 140°
2026-05-04 13:25 41.17991 -95.92798 4310 ft 256 kts 142°
2026-05-04 13:25 41.16655 -95.91268 4124 ft 250 kts 142°
2026-05-04 13:25 41.15389 -95.89824 4082 ft 238 kts 142°
2026-05-04 13:26 41.14141 -95.88399 4055 ft 226 kts 142°
2026-05-04 13:26 41.13008 -95.87088 3922 ft 212 kts 138°
2026-05-04 13:26 41.12352 -95.85419 3766 ft 206 kts 95°
2026-05-04 13:26 41.12720 -95.83636 3436 ft 203 kts 51°
2026-05-04 13:27 41.13710 -95.82322 3147 ft 202 kts 41°
2026-05-04 13:27 41.14772 -95.81070 3063 ft 206 kts 40°
2026-05-04 13:27 41.15871 -95.79815 2985 ft 208 kts 34°
2026-05-04 13:27 41.17128 -95.78999 3035 ft 201 kts 18°
2026-05-04 13:28 41.18470 -95.78983 2995 ft 196 kts 336°
2026-05-04 13:28 41.19688 -95.79779 2981 ft 196 kts 327°
2026-05-04 13:28 41.20853 -95.80645 2932 ft 184 kts 325°
2026-05-04 13:28 41.21870 -95.81538 2785 ft 168 kts 320°
2026-05-04 13:29 41.22812 -95.82435 2518 ft 164 kts 319°
2026-05-04 13:29 41.23726 -95.83310 2334 ft 161 kts 319°
2026-05-04 13:29 41.24639 -95.84182 2130 ft 162 kts 319°
2026-05-04 13:29 41.25550 -95.85053 1914 ft 161 kts 320°
2026-05-04 13:30 41.26457 -95.85948 1727 ft 162 kts 321°
2026-05-04 13:30 41.27369 -95.86816 1478 ft 160 kts 323°
2026-05-04 13:30 41.28250 -95.87659 1270 ft 155 kts 321°
2026-05-04 13:30 41.29126 -95.88479 1032 ft 152 kts 320°
2026-05-04 13:31 41.29935 -95.89241 987 ft 128 kts 326°
2026-05-04 13:31 41.30483 -95.89758 994 ft 64 kts 326°
2026-05-04 13:31 41.30554 -95.89846 997 ft 4 kts 288°
2026-05-04 13:31 41.30543 -95.89898 995 ft 10 kts 236°
2026-05-04 13:32 41.30525 -95.89929 991 ft 1 kts 228°
2026-05-04 13:32 41.30501 -95.89944 995 ft 4 kts 178°
2026-05-04 13:32 41.30485 -95.89933 994 ft 1 kts 146°
2026-05-04 13:32 41.30477 -95.89925 993 ft 1 kts 146°
2026-05-04 13:33 41.30469 -95.89918 996 ft 1 kts 146°
2026-05-04 13:33 41.30462 -95.89912 994 ft 1 kts 146°
2026-05-04 13:33 41.30455 -95.89906 993 ft 1 kts 146°
2026-05-04 13:33 41.30444 -95.89895 997 ft 3 kts 146°
2026-05-04 13:34 41.30424 -95.89877 993 ft 4 kts 143°
2026-05-04 13:34 41.30386 -95.89840 993 ft 10 kts 145°
2026-05-04 13:34 41.30333 -95.89791 996 ft 10 kts 145°
2026-05-04 13:34 41.30277 -95.89735 991 ft 10 kts 142°
2026-05-04 13:35 41.30223 -95.89683 989 ft 10 kts 144°
2026-05-04 13:35 41.30191 -95.89652 991 ft 0 kts 146°
2026-05-04 13:36 41.30168 -95.89632 990 ft 9 kts 146°
2026-05-04 13:36 41.30084 -95.89604 988 ft 16 kts 179°
2026-05-04 13:37 41.30012 -95.89614 989 ft 10 kts 216°
2026-05-04 13:37 41.29994 -95.89699 989 ft 10 kts 260°
2026-05-04 13:37 41.29988 -95.89785 987 ft 9 kts 285°
2026-05-04 13:37 41.30004 -95.89841 992 ft 5 kts 295°
2026-05-04 13:38 41.30032 -95.89869 991 ft 5 kts 352°
2026-05-04 13:38 41.30043 -95.89872 991 ft 0 kts 351°